Olean, NY

1:33 PM EST on November 21, 2019 (GMT -0500)
Cattaraugus County-Olean

Weather History for KOLE - October, 2019

Change the Weather History Date:

Sunday, October 13, 2019

  Actual Average (KBFD) Record (KBFD)
Temperature  
Mean Temperature 46 °F -  
Max Temperature 59 °F 59 °F 78 °F (1969)
Min Temperature 32 °F 37 °F 19 °F (1957)
Degree Days  
Heating Degree Days 20    
Moisture  
Dew Point 33 °F    
Average Humidity 71    
Maximum Humidity 100    
Minimum Humidity 36    
Precipitation  
Precipitation 0.00 in - - ()
Sea Level Pressure  
Sea Level Pressure 29.98 in    
Wind  
Wind Speed 6 mph ()    
Max Wind Speed 15 mph    
Max Gust Speed 22 mph    
Visibility 10.0 miles    
Events      
Averages and records for this station are not official NWS values.
T = Trace of Precipitation, MM = Missing Value Source: Averaged Metar Reports

Daily Weather History Graph

Daily Weather History Graph

Search for Another Location

Airport or City:

Astronomy

Oct. 13, 2019 Rise Set
Actual Time 7:23 AM EDT 6:35 PM EDT
Civil Twilight 6:55 AM EDT 7:03 PM EDT
Nautical Twilight 6:22 AM EDT 7:35 PM EDT
Astronomical Twilight 5:50 AM EDT 8:08 PM EDT
Moon 6:57 PM EDT (10/13) 6:54 AM EDT (10/13)
Length of Visible Light 12h 07m
Length of Day
11h 11m
Full, 100% of the Moon is Illuminated
Oct 13
Full
Oct 13
Full
Oct 21
Last Quarter
Oct 27
New
Nov 4
First Quarter

Hourly Weather History & Observations

Time (EDT) Temp. Windchill Dew Point Humidity Pressure Visibility Wind Dir Wind Speed Gust Speed Precip Events Conditions
12:15 AM 35.6 °F 31.7 °F 35.6 °F 100% 30.05 in 10.0 mi SW 4.6 mph - N/A   Clear
12:35 AM 35.6 °F 32.8 °F 35.6 °F 100% 30.04 in 10.0 mi SW 3.5 mph - N/A   Clear
12:55 AM 37.4 °F 34.9 °F 35.6 °F 93% 30.04 in 10.0 mi SSW 3.5 mph - N/A   Clear
1:35 AM 35.6 °F - 35.6 °F 100% 30.04 in 10.0 mi Calm Calm - N/A   Clear
1:55 AM 35.6 °F - 35.6 °F 100% 30.04 in 10.0 mi Calm Calm - N/A   Clear
2:15 AM 33.8 °F - 33.8 °F 100% 30.05 in 10.0 mi Calm Calm - N/A   Clear
2:35 AM 33.8 °F - 33.8 °F 100% 30.05 in 10.0 mi Calm Calm - N/A   Clear
2:55 AM 33.8 °F - 33.8 °F 100% 30.05 in 10.0 mi Calm Calm - N/A   Clear
3:15 AM 33.8 °F - 33.8 °F 100% 30.04 in 10.0 mi Calm Calm - N/A   Clear
3:35 AM 33.8 °F 28.6 °F 33.8 °F 100% 30.04 in 10.0 mi SSW 5.8 mph - N/A   Clear
3:55 AM 33.8 °F 29.6 °F 32.0 °F 93% 30.04 in 10.0 mi SSW 4.6 mph - N/A   Clear
4:15 AM 33.8 °F 29.6 °F 33.8 °F 100% 30.04 in 10.0 mi SSW 4.6 mph - N/A   Clear
4:35 AM 33.8 °F 28.6 °F 33.8 °F 100% 30.04 in 10.0 mi SSW 5.8 mph - N/A   Clear
4:55 AM 32.0 °F 27.5 °F 32.0 °F 100% 30.04 in 10.0 mi SSW 4.6 mph - N/A   Clear
5:15 AM 33.8 °F 29.6 °F 32.0 °F 93% 30.04 in 10.0 mi SSW 4.6 mph - N/A   Clear
5:35 AM 33.8 °F 29.6 °F 32.0 °F 93% 30.04 in 10.0 mi SSW 4.6 mph - N/A   Clear
5:55 AM 33.8 °F 27.7 °F 32.0 °F 93% 30.05 in 10.0 mi SSW 6.9 mph - N/A   Clear
6:15 AM 33.8 °F 27.7 °F 32.0 °F 93% 30.05 in 10.0 mi SSW 6.9 mph - N/A   Clear
6:35 AM 33.8 °F 29.6 °F 32.0 °F 93% 30.05 in 10.0 mi SSW 4.6 mph - N/A   Clear
6:55 AM 32.0 °F 26.4 °F 32.0 °F 100% 30.06 in 10.0 mi SSW 5.8 mph - N/A   Clear
7:15 AM 32.0 °F 27.5 °F 32.0 °F 100% 30.06 in 10.0 mi SSW 4.6 mph - N/A   Clear
7:35 AM 32.0 °F 24.8 °F 32.0 °F 100% 30.05 in 10.0 mi South 8.1 mph - N/A   Clear
7:55 AM 32.0 °F 25.6 °F 32.0 °F 100% 30.05 in 10.0 mi SSW 6.9 mph - N/A   Clear
8:15 AM 33.8 °F 26.4 °F 32.0 °F 93% 30.04 in 10.0 mi SSW 9.2 mph - N/A   Clear
8:35 AM 33.8 °F 26.4 °F 32.0 °F 93% 30.04 in 10.0 mi SSW 9.2 mph - N/A   Clear
8:55 AM 35.6 °F 28.0 °F 32.0 °F 87% 30.05 in 10.0 mi SSW 10.4 mph - N/A   Clear
9:15 AM 33.8 °F 26.4 °F 32.0 °F 93% 30.04 in 10.0 mi SSW 9.2 mph - N/A   Clear
9:35 AM 35.6 °F 29.2 °F 32.0 °F 87% 30.04 in 10.0 mi SSW 8.1 mph - N/A   Clear
9:55 AM 37.4 °F 30.8 °F 33.8 °F 87% 30.04 in 10.0 mi SSW 9.2 mph - N/A   Clear
10:15 AM 41.0 °F 35.8 °F 33.8 °F 76% 30.04 in 10.0 mi SSW 8.1 mph - N/A   Clear
10:35 AM 41.0 °F 38.0 °F 35.6 °F 81% 30.04 in 10.0 mi SSW 4.6 mph - N/A   Clear
10:55 AM 42.8 °F 40.1 °F 35.6 °F 76% 30.04 in 10.0 mi SSW 4.6 mph - N/A   Clear
11:15 AM 44.6 °F 39.7 °F 35.6 °F 71% 30.04 in 10.0 mi SSW 9.2 mph - N/A   Clear
11:35 AM 46.4 °F 42.9 °F 35.6 °F 66% 30.03 in 10.0 mi SSW 6.9 mph - N/A   Clear
11:55 AM 48.2 °F - 33.8 °F 58% 30.03 in 10.0 mi SSW 8.1 mph - N/A   Clear
12:15 PM 50.0 °F - 35.6 °F 58% 30.02 in 10.0 mi SSW 9.2 mph - N/A   Clear
12:55 PM 51.8 °F - 33.8 °F 50% 30.01 in 10.0 mi South 9.2 mph 16.1 mph N/A   Clear
1:15 PM 53.6 °F - 35.6 °F 51% 30.00 in 10.0 mi South 8.1 mph 16.1 mph N/A   Clear
1:35 PM 53.6 °F - 33.8 °F 47% 29.97 in 10.0 mi SSW 9.2 mph 16.1 mph N/A   Clear
1:55 PM 53.6 °F - 32.0 °F 44% 29.97 in 10.0 mi South 12.7 mph 17.3 mph N/A   Clear
2:15 PM 55.4 °F - 32.0 °F 41% 29.96 in 10.0 mi South 11.5 mph - N/A   Clear
2:35 PM 55.4 °F - 32.0 °F 41% 29.94 in 10.0 mi South 11.5 mph 18.4 mph N/A   Clear
2:55 PM 57.2 °F - 32.0 °F 38% 29.93 in 10.0 mi South 9.2 mph 18.4 mph N/A   Clear
3:15 PM 57.2 °F - 32.0 °F 38% 29.92 in 10.0 mi SSW 12.7 mph - N/A   Clear
3:35 PM 59.0 °F - 32.0 °F 36% 29.92 in 10.0 mi SSW 12.7 mph 16.1 mph N/A   Clear
3:55 PM 59.0 °F - 32.0 °F 36% 29.92 in 10.0 mi SSW 9.2 mph - N/A   Clear
4:15 PM 59.0 °F - 32.0 °F 36% 29.91 in 10.0 mi South 12.7 mph 19.6 mph N/A   Clear
4:35 PM 57.2 °F - 30.2 °F 36% 29.91 in 10.0 mi South 12.7 mph 19.6 mph N/A   Clear
4:55 PM 57.2 °F - 30.2 °F 36% 29.90 in 10.0 mi South 15.0 mph 19.6 mph N/A   Clear
5:15 PM 57.2 °F - 30.2 °F 36% 29.90 in 10.0 mi South 15.0 mph 21.9 mph N/A   Clear
5:35 PM 57.2 °F - 30.2 °F 36% 29.90 in 10.0 mi South 11.5 mph 17.3 mph N/A   Clear
5:55 PM 55.4 °F - 32.0 °F 41% 29.90 in 10.0 mi South 10.4 mph 17.3 mph N/A   Clear
6:15 PM 55.4 °F - 30.2 °F 38% 29.89 in 10.0 mi South 11.5 mph 17.3 mph N/A   Clear
6:35 PM 53.6 °F - 28.4 °F 38% 29.90 in 10.0 mi South 9.2 mph - N/A   Clear
6:55 PM 51.8 °F - 28.4 °F 41% 29.90 in 10.0 mi South 11.5 mph 17.3 mph N/A   Clear
7:15 PM 51.8 °F - 28.4 °F 41% 29.91 in 10.0 mi South 10.4 mph - N/A   Clear
7:35 PM 50.0 °F - 30.2 °F 47% 29.91 in 10.0 mi South 11.5 mph 16.1 mph N/A   Clear
7:55 PM 50.0 °F - 32.0 °F 50% 29.91 in 10.0 mi South 9.2 mph 17.3 mph N/A   Clear
8:15 PM 50.0 °F - 32.0 °F 50% 29.91 in 10.0 mi South 11.5 mph 17.3 mph N/A   Clear
8:35 PM 48.2 °F - 33.8 °F 58% 29.91 in 10.0 mi South 10.4 mph 20.7 mph N/A   Clear
8:55 PM 48.2 °F - 33.8 °F 58% 29.92 in 10.0 mi SSW 11.5 mph - N/A   Clear
9:15 PM 48.2 °F - 33.8 °F 58% 29.92 in 10.0 mi SSW 8.1 mph 18.4 mph N/A   Clear
9:35 PM 46.4 °F 41.5 °F 33.8 °F 62% 29.92 in 10.0 mi SSW 10.4 mph 17.3 mph N/A   Clear
9:55 PM 46.4 °F 41.5 °F 35.6 °F 66% 29.92 in 10.0 mi South 10.4 mph - N/A   Clear
10:15 PM 46.4 °F 41.9 °F 35.6 °F 66% 29.92 in 10.0 mi SSW 9.2 mph 16.1 mph N/A   Clear
10:35 PM 46.4 °F 42.4 °F 35.6 °F 66% 29.92 in 10.0 mi SSW 8.1 mph - N/A   Clear
10:55 PM 44.6 °F 40.2 °F 35.6 °F 71% 29.92 in 10.0 mi SSW 8.1 mph - N/A   Clear
11:15 PM 44.6 °F 40.2 °F 35.6 °F 71% 29.92 in 10.0 mi SSW 8.1 mph - N/A   Clear
11:35 PM 44.6 °F 40.2 °F 35.6 °F 71% 29.92 in 10.0 mi South 8.1 mph - N/A   Clear
11:55 PM 44.6 °F 39.7 °F 35.6 °F 71% 29.91 in 10.0 mi South 9.2 mph - N/A   Clear